EW9525 Weather Reports


time (UTC)temp
C
wind
direction
speed
KPH
gust
KPH
rain 1hr
cm
rain 24hr
cm
rain mn
cm
humidity
%
barometer
mb
20260906181504 28 148 20.9 33.8 0.00 1.12 1.12 63 1009.5
20260906180117 28 200 22.5 30.6 0.00 1.12 1.12 64 1009.8
20260906174559 27 174 24.1 33.8 0.00 1.12 1.12 67 1010.0
20260906173054 27 135 20.9 33.8 0.00 1.12 1.12 69 1010.3
20260906171553 26 157 24.1 38.6 0.00 1.12 1.12 67 1010.6
20260906170051 26 148 19.3 33.8 0.00 1.12 1.12 68 1010.6
20260906164548 26 173 17.7 32.2 0.00 1.12 1.12 68 1010.9
20260906163047 26 115 20.9 37.0 0.00 1.12 1.12 68 1011.0
20260906161549 25 122 20.9 37.0 0.00 1.12 1.12 70 1011.1
20260906160044 24 127 22.5 38.6 0.00 1.12 1.12 74 1010.9
20260906154544 24 123 27.4 40.2 0.00 1.12 1.12 74 1010.5
20260906153042 23 134 24.1 38.6 0.00 1.12 1.12 78 1010.4
20260906151542 23 131 22.5 33.8 0.00 1.12 1.12 83 1010.7
20260906150049 22 121 24.1 37.0 0.00 1.12 1.12 85 1011.0
20260906144543 21 94 17.7 30.6 0.00 1.12 1.12 89 1011.4
20260906143039 21 98 14.5 25.7 0.00 1.12 1.12 91 1011.4
20260906141539 20 77 16.1 27.4 0.00 1.12 1.12 92 1011.5
20260906140041 20 91 17.7 25.7 0.00 1.12 1.12 93 1011.5
20260906134541 20 75 16.1 20.9 0.05 1.12 1.12 93 1011.7
20260906133033 20 46 11.3 24.1 0.05 1.12 1.12 93 1011.8
20260906131535 19 90 12.9 24.1 0.05 1.12 1.12 94 1011.4
20260906130031 19 82 9.7 17.7 0.05 1.12 1.12 94 1010.9
20260906124529 18 54 6.4 14.5 0.00 1.07 1.07 93 1011.2
20260906123034 18 83 11.3 19.3 0.00 1.07 1.07 93 1011.1
20260906121538 19 70 14.5 22.5 0.00 1.07 1.07 93 1011.3
20260906120027 19 89 14.5 20.9 0.00 1.07 1.07 93 1011.3
20260906114530 19 54 6.4 11.3 0.00 1.07 1.07 93 1010.9
20260906113041 19 56 8.0 16.1 0.00 1.07 1.07 93 1010.3
20260906111525 19 68 11.3 20.9 0.00 1.07 1.07 93 1009.9
20260906110024 19 79 12.9 19.3 0.03 1.07 1.07 93 1009.9
20260906104529 19 65 11.3 17.7 0.13 1.07 1.07 93 1010.1
20260906103023 19 50 19.3 27.4 0.15 1.07 1.07 93 1010.0
20260906101523 19 57 19.3 27.4 0.18 1.07 1.07 93 1010.2
20260906100021 18 52 19.3 35.4 0.38 1.04 1.04 92 1010.6
20260906094518 19 17 20.9 30.6 0.58 0.94 0.94 92 1011.1
20260906093017 19 359 17.7 30.6 0.91 0.91 0.91 92 1010.4
20260906091529 19 23 22.5 33.8 0.89 0.89 0.89 92 1010.3
20260906090013 19 357 25.7 35.4 0.66 0.66 0.66 91 1010.5
20260906084510 19 335 22.5 30.6 0.33 0.33 0.33 89 1010.8
20260906083012 20 354 20.9 32.2 0.00 0.00 0.00 84 1010.3
20260906081502 22 330 17.7 35.4 0.00 0.00 0.00 75 1010.2
20260906080056 23 334 22.5 45.1 0.00 0.00 0.00 69 1009.9
20260906074609 24 290 16.1 25.7 0.00 0.00 0.00 68 1009.1
20260906073050 24 82 1.6 4.8 0.00 0.00 0.00 68 1008.1
20260906071549 24 110 0.0 4.8 0.00 0.00 0.00 67 1008.5
20260906070048 25 191 6.4 12.9 0.00 0.00 0.00 65 1008.3
20260906064547 25 145 8.0 12.9 0.00 0.00 0.00 64 1008.1
20260906063045 25 158 6.4 11.3 0.00 0.00 0.00 63 1008.1
20260906061544 25 153 9.7 16.1 0.00 0.00 0.00 62 1008.3
20260906060042 25 164 8.0 16.1 0.00 0.00 0.00 63 1008.2
20260906054539 25 167 12.9 19.3 0.00 0.00 0.00 64 1008.0
20260906053037 25 187 11.3 17.7 0.00 0.00 0.00 65 1008.0
20260906051541 25 200 9.7 14.5 0.00 0.00 0.00 65 1007.9
20260906050044 25 184 4.8 9.7 0.00 0.00 0.00 66 1008.0
20260906044537 25 189 4.8 11.3 0.00 0.00 0.00 64 1008.0
20260906043032 25 186 6.4 9.7 0.00 0.00 0.00 64 1008.0
20260906041535 25 161 3.2 8.0 0.00 0.00 0.00 62 1008.0
20260906040031 26 158 3.2 9.7 0.00 0.00 0.00 61 1008.1
20260906034530 26 137 4.8 11.3 0.00 0.00 0.00 61 1008.0
20260906033040 26 137 4.8 11.3 0.00 0.00 0.00 59 1007.8
20260906031531 26 160 4.8 8.0 0.00 0.00 0.00 59 1007.5
20260906030030 27 119 3.2 9.7 0.00 0.00 0.00 57 1007.4
20260906024528 27 205 4.8 9.7 0.00 0.00 0.00 57 1007.5
20260906023028 27 152 3.2 4.8 0.00 0.00 0.00 56 1007.6
20260906021528 28 141 6.4 12.9 0.00 0.00 0.00 53 1007.2
20260906020028 28 140 8.0 14.5 0.00 0.00 0.00 52 1007.1
20260906014528 29 173 9.7 20.9 0.00 0.00 0.00 49 1007.0
20260906013026 29 134 24.1 32.2 0.00 0.00 0.00 48 1007.0
20260906011534 29 101 4.8 8.0 0.00 0.00 0.00 47 1006.6
20260906010025 30 100 1.6 4.8 0.00 0.00 0.00 46 1006.5
20260906004524 31 98 3.2 6.4 0.00 0.00 0.00 43 1006.6
20260906003024 31 104 6.4 11.3 0.00 0.00 0.00 42 1006.6
20260906001524 32 105 6.4 14.5 0.00 0.00 0.00 40 1006.4
20260906000023 32 108 11.3 17.7 0.00 0.00 0.00 39 1006.4
20260905234523 33 119 12.9 19.3 0.00 0.00 0.00 36 1006.2
20260905233021 33 102 11.3 24.1 0.00 0.00 0.00 35 1006.0
20260905231523 35 99 17.7 27.4 0.00 0.00 0.00 34 1005.9
20260905230021 35 102 19.3 29.0 0.00 0.00 0.00 32 1005.9
20260905224531 35 131 20.9 30.6 0.00 0.00 0.00 32 1005.8
20260905223019 35 111 20.9 29.0 0.00 0.00 0.00 33 1006.0
20260905221518 35 112 19.3 27.4 0.00 0.00 0.00 32 1006.1
20260905220018 35 115 20.9 32.2 0.00 0.00 0.00 31 1006.2
20260905214516 35 136 22.5 37.0 0.00 0.00 0.00 33 1006.3
20260905213015 35 124 22.5 37.0 0.00 0.00 0.00 34 1006.4
20260905211514 35 124 25.7 37.0 0.00 0.00 0.00 32 1006.6
20260905210013 35 97 24.1 35.4 0.00 0.00 0.00 32 1006.8
20260905204517 36 96 20.9 33.8 0.00 0.00 0.00 32 1006.9
20260905203011 35 141 24.1 37.0 0.00 0.00 0.00 32 1007.0
20260905201510 35 113 24.1 33.8 0.00 0.00 0.00 33 1007.1
20260905200008 35 108 20.9 33.8 0.00 0.00 0.00 34 1007.3
20260905194504 34 115 20.9 29.0 0.00 0.00 0.00 37 1007.4
20260905193005 34 116 20.9 35.4 0.00 0.00 0.00 37 1007.5
20260905191502 34 105 20.9 30.6 0.00 0.00 0.00 37 1007.6
20260905184602 33 122 19.3 30.6 0.00 0.00 0.00 40 1007.9
20260905183100 33 91 20.9 30.6 0.00 0.00 0.00 40 1008.1